Location: Beddau
(51.5575°N, 3.3561°W)
Time: 12:58:56
(UTC+00:00)

SeaSat 1 - Pass Details

Date: 03 March 2021
Orbit: 744 x 747 km, 108.0° (Epoch: 16 April)

Event Time Altitude Azimuth Distance (km) Brightness Sun altitude
Rises 21:10:54 0° 26° (NNE) 3,203 5.8 -29.8°
Reaches altitude 10° 21:13:27 10° 15° (NNE) 2,276 5.1 -30.1°
Maximum altitude 21:17:34 27° 318° (NW) 1,412 4.4 -30.7°
Drops below altitude 10° 21:21:40 10° 262° (W) 2,268 5.5 -31.2°
Sets 21:24:12 0° 251° (WSW) 3,189 6.2 -31.5°
